Wind_Speed
26 25 22 20 20 19 17 15 14 14 13 13 12 10 9 8 8 7 7 6 6 5 6 8 10 13 15 16 18 20 22 23 24 25 26 26 26 26 25 24 23 21 20 19
24 22 20 22 21 18 16 15 14 13 13 12 12 10 9 9 8 8 7 6 5 5 6 8 10 12 14 16 18 20 22 24 25 25 26 26 26 26 26 24 23 22 21 19
21 20 21 21 20 17 16 14 14 13 13 13 12 10 10 9 8 8 7 6 5 5 6 7 10 12 14 16 18 20 22 24 25 25 25 26 26 26 26 25 24 23 21 20
20 20 21 20 18 16 15 15 15 14 13 12 11 10 9 9 8 8 7 6 5 4 5 7 9 11 14 16 18 20 22 24 25 25 26 26 26 27 26 26 24 23 22 20
18 19 19 18 17 16 16 15 15 14 13 12 11 10 9 8 8 8 7 6 5 4 5 7 9 11 14 16 18 20 22 24 24 25 26 26 26 27 26 26 25 24 23 21
18 18 18 17 17 17 16 15 15 14 13 12 11 10 9 9 9 8 7 7 6 5 5 7 9 11 13 15 18 20 22 24 24 25 26 26 27 27 27 26 25 25 23 21
17 17 17 16 17 16 16 16 15 14 13 12 11 10 9 9 9 8 8 7 6 5 6 7 9 11 13 15 17 20 22 23 24 25 26 26 27 27 27 26 26 25 25 23
15 15 15 16 16 16 16 15 15 14 13 11 11 10 9 10 9 8 7 7 6 5 5 7 9 11 13 14 17 19 21 23 24 25 25 26 27 27 27 27 26 25 25 24
14 14 15 15 15 15 15 15 15 14 13 12 11 10 10 10 9 8 7 7 6 6 6 7 9 10 12 14 16 18 20 22 24 25 25 26 26 27 27 27 26 25 25 24
14 14 16 16 15 14 13 14 14 14 13 13 11 11 10 10 10 8 8 7 6 6 6 7 9 10 12 14 15 18 20 21 23 24 25 25 26 26 27 27 27 26 24 23
12 13 14 15 15 14 13 13 13 14 14 13 12 11 11 10 10 9 8 8 7 7 7 7 8 10 11 13 15 17 19 20 22 23 25 25 26 26 26 27 27 26 25 24
12 12 13 13 14 14 13 13 13 13 13 13 12 10 11 11 10 9 9 8 8 7 7 7 8 10 11 12 14 16 18 19 21 22 23 25 25 26 26 26 26 26 25 24
12 13 13 13 14 14 13 12 12 13 13 13 12 10 11 11 10 10 10 9 9 8 8 8 8 10 11 12 14 16 17 19 20 21 22 24 25 25 26 26 26 26 25 24
12 13 13 13 14 14 14 13 13 13 13 12 11 10 11 11 11 11 10 10 9 9 9 9 9 10 11 12 14 15 17 18 19 20 21 23 23 24 25 25 25 25 25 24
11 12 13 14 14 15 14 14 13 13 13 13 11 11 12 12 12 12 11 11 10 9 9 9 10 10 11 12 13 15 16 17 19 20 20 21 22 23 24 24 24 24 24 24
12 13 14 14 15 15 15 14 14 14 14 13 12 11 13 12 12 13 13 12 11 10 10 10 10 11 11 12 13 15 16 17 18 19 20 20 21 22 23 23 24 24 23 23
13 15 16 16 17 17 15 14 15 15 15 15 14 13 14 13 13 14 14 13 12 11 11 11 11 11 12 12 13 14 16 17 18 18 19 20 21 21 22 22 23 23 22 22
13 15 16 17 18 19 15 16 17 17 16 16 15 15 15 14 14 14 14 13 13 12 12 12 12 12 12 13 14 15 16 16 17 18 19 20 20 21 21 21 22 22 22 21
15 16 17 17 18 18 16 17 18 17 16 16 16 15 15 15 15 14 14 14 13 13 13 13 12 12 13 13 14 15 16 16 17 18 18 19 20 20 21 21 21 21 21 21
16 17 18 18 18 17 15 17 18 17 16 16 17 16 16 16 16 15 15 15 14 14 14 14 13 13 13 14 14 15 16 17 17 18 18 19 20 20 20 20 20 21 21 21
17 18 18 18 18 16 15 16 17 17 16 17 18 18 17 17 17 17 16 15 15 15 15 15 14 14 14 15 15 16 16 17 17 18 18 19 20 20 20 20 20 20 20 21
19 19 19 19 18 16 17 17 17 17 18 18 18 18 19 19 18 18 17 17 16 16 16 16 15 15 15 16 16 16 17 17 18 18 19 19 20 20 20 20 20 20 20 21
22 21 21 20 19 19 19 19 19 20 19 19 19 19 19 20 19 19 18 18 18 17 17 17 17 17 17 17 17 17 18 18 18 19 19 20 20 20 20 20 21 21 21 21
24 24 24 23 21 21 21 21 22 22 22 21 21 21 21 21 20 20 20 20 19 19 18 18 18 18 18 18 18 19 19 19 19 20 20 20 20 20 20 21 21 22 22 21
26 27 27 26 24 25 24 24 24 24 24 23 23 23 22 22 22 21 21 21 20 20 20 20 20 20 20 20 20 20 20 20 21 21 21 21 21 21 21 22 22 22 23 22
28 30 30 29 28 29 27 27 27 26 26 25 25 24 24 23 23 23 23 22 22 22 22 21 21 21 21 21 21 21 21 22 22 22 22 22 22 22 23 23 23 23 24 23
Wind_Direction
241 241 242 243 244 246 252 255 258 261 264 265 267 268 268 267 263 267 272 279 294 316 338 351 358 1 1 1 1 360 359 357 355 353 352 351 349 347 344 341 336 331 325 318
238 237 235 236 240 244 249 253 255 258 263 264 264 264 264 261 259 263 269 276 290 313 337 352 359 1 2 2 1 360 359 357 356 355 354 354 353 351 349 346 342 338 333 327
235 231 230 233 237 240 244 247 249 254 259 262 259 257 256 254 257 261 268 277 289 313 337 354 0 3 4 3 2 0 359 358 357 357 357 357 356 354 353 350 347 344 340 334
226 225 226 230 232 234 236 241 244 249 255 257 256 249 245 248 255 260 268 275 286 311 338 354 0 3 3 3 2 1 360 360 360 359 358 357 356 356 354 353 351 349 346 341
223 223 225 227 229 231 234 238 243 249 253 254 250 245 240 247 255 261 265 273 282 307 334 351 358 1 2 2 1 1 0 0 0 0 360 359 357 357 357 356 354 352 349 346
218 220 222 224 226 229 233 236 241 247 249 248 245 246 244 251 258 262 264 271 281 304 330 346 355 359 360 0 1 1 1 0 0 0 1 0 360 359 358 358 357 357 355 353
214 217 219 221 224 227 230 234 241 243 246 247 245 248 249 255 259 260 263 270 282 303 325 342 351 356 358 359 360 0 1 1 1 1 1 2 2 2 1 0 360 359 0 359
212 214 217 219 224 228 230 235 242 245 245 249 249 252 252 258 259 258 263 270 281 299 320 337 346 352 354 356 358 360 0 1 2 2 2 3 3 3 2 2 2 2 2 3
209 212 216 220 222 226 230 236 243 247 249 253 252 253 255 256 257 258 264 272 281 296 315 330 340 347 350 353 356 358 359 1 2 3 2 2 3 4 3 3 3 3 4 5
210 214 215 217 221 227 232 236 242 246 253 255 252 252 254 254 256 256 260 270 280 294 309 323 334 342 347 351 355 357 358 359 1 2 3 3 3 4 5 6 5 4 4 5
209 214 217 220 225 232 235 240 246 250 256 258 254 252 252 253 254 257 260 266 276 287 301 315 329 338 344 348 352 354 356 358 359 1 3 4 4 4 6 7 8 8 7 7
212 216 219 221 226 233 238 242 250 255 256 258 260 256 254 253 254 257 261 264 271 282 294 309 323 332 339 344 348 351 353 355 357 359 1 3 4 5 6 7 9 10 10 10
220 222 223 223 229 236 241 249 257 260 261 262 263 263 256 252 252 254 258 261 267 277 289 302 316 326 333 339 344 348 350 352 354 357 360 1 3 4 6 7 9 10 11 11
229 229 229 231 234 237 243 251 260 265 267 267 266 264 259 253 249 248 252 256 263 272 284 295 308 319 327 333 339 344 346 349 351 354 357 359 0 3 5 6 8 9 10 11
235 234 232 237 240 243 246 252 260 265 265 266 264 262 259 254 249 249 251 254 259 268 279 290 301 311 320 328 334 339 342 345 347 350 353 355 358 360 3 5 6 7 8 10
241 242 240 244 248 251 252 256 262 265 264 264 262 262 260 256 252 252 253 254 257 265 276 287 296 305 314 322 328 333 338 341 343 346 349 351 354 357 360 2 4 5 6 8
252 251 250 250 252 256 258 261 263 264 264 266 264 261 259 257 254 254 255 256 257 264 274 284 293 301 309 316 322 327 332 337 339 342 345 347 350 353 356 358 1 3 4 5
257 257 256 254 252 255 260 259 261 264 264 264 262 260 258 256 255 255 255 256 259 265 272 281 288 296 304 311 316 322 327 332 336 339 341 343 346 350 352 354 357 359 1 2
259 260 261 260 257 257 259 261 263 263 261 262 262 261 259 257 257 256 257 258 260 264 269 276 284 292 299 305 311 316 321 326 330 334 337 340 342 345 348 350 353 355 356 357
264 262 263 264 264 263 261 261 262 262 261 261 261 260 260 258 258 257 257 257 258 262 267 273 280 288 294 300 305 311 316 321 325 328 332 336 339 341 343 345 347 350 352 352
265 265 265 265 265 266 263 260 258 259 257 256 258 259 260 259 258 258 258 257 258 262 266 271 277 284 290 295 300 306 311 316 320 323 327 330 334 337 338 340 342 344 347 348
266 266 265 264 263 263 260 258 256 256 255 256 256 258 259 259 257 257 257 257 259 261 265 270 275 281 286 291 296 301 306 311 316 319 322 326 329 331 334 336 338 339 341 343
264 264 263 262 262 260 259 257 256 255 255 256 257 258 258 257 256 255 255 257 258 261 264 268 273 278 283 287 292 297 302 307 311 315 318 321 324 326 329 331 334 336 337 338
261 261 261 261 260 259 257 256 255 255 255 255 257 258 257 256 255 255 256 257 257 259 263 267 271 276 281 285 290 294 299 304 308 311 314 317 319 322 324 326 328 331 332 333
259 261 261 260 258 255 254 255 254 254 256 257 257 257 256 256 255 254 255 257 258 260 263 267 271 275 279 283 288 292 296 301 304 307 310 313 315 317 319 322 324 325 326 327
258 259 259 258 256 255 253 254 255 255 256 256 255 255 255 255 254 254 256 258 259 261 263 266 269 273 277 281 286 290 294 297 300 304 306 309 311 313 315 317 319 320 321 321
Height
5839 5844 5848 5851 5853 5855 5857 5859 5860 5861 5861 5861 5862 5862 5862 5861 5861 5860 5860 5859 5858 5856 5854 5851 5849 5846 5843 5840 5837 5833 5829 5825 5820 5815 5810 5805 5800 5794 5789 5784 5780 5775 5772 5768
5836 5840 5844 5846 5849 5852 5854 5856 5857 5858 5859 5859 5859 5860 5860 5859 5859 5858 5858 5857 5856 5854 5852 5850 5848 5845 5842 5839 5836 5832 5828 5823 5819 5814 5809 5803 5798 5793 5787 5782 5777 5772 5768 5764
5832 5837 5839 5843 5846 5849 5851 5853 5855 5856 5856 5856 5857 5858 5858 5857 5857 5857 5856 5855 5854 5853 5851 5849 5847 5844 5841 5838 5835 5831 5827 5822 5817 5812 5807 5802 5797 5791 5785 5780 5775 5770 5765 5761
5828 5832 5836 5839 5843 5846 5848 5850 5851 5853 5853 5854 5855 5856 5856 5855 5855 5855 5854 5854 5853 5851 5850 5848 5846 5843 5840 5837 5834 5830 5826 5821 5816 5811 5806 5801 5796 5790 5784 5779 5773 5768 5763 5758
5826 5830 5833 5837 5841 5843 5846 5847 5849 5850 5851 5852 5853 5853 5855 5854 5853 5853 5853 5852 5851 5850 5848 5847 5844 5842 5839 5836 5833 5829 5825 5821 5816 5811 5806 5800 5795 5789 5783 5778 5772 5766 5761 5756
5824 5827 5831 5835 5838 5840 5843 5845 5846 5847 5848 5850 5851 5851 5852 5852 5851 5851 5851 5851 5850 5849 5847 5845 5843 5841 5839 5836 5832 5829 5824 5820 5815 5810 5805 5800 5794 5789 5783 5777 5771 5765 5759 5754
5822 5826 5829 5833 5835 5838 5841 5843 5844 5845 5846 5848 5848 5849 5850 5850 5849 5849 5849 5849 5848 5847 5846 5844 5842 5840 5838 5835 5832 5828 5824 5819 5815 5810 5805 5800 5794 5788 5783 5777 5771 5765 5759 5753
5821 5825 5828 5831 5833 5836 5838 5840 5843 5843 5844 5845 5846 5846 5848 5848 5847 5847 5847 5847 5846 5845 5844 5843 5841 5839 5837 5834 5831 5827 5823 5819 5814 5810 5805 5800 5794 5788 5783 5777 5771 5765 5759 5754
5820 5824 5826 5829 5831 5834 5836 5838 5840 5841 5841 5842 5843 5845 5845 5845 5845 5845 5845 5845 5844 5843 5842 5841 5840 5838 5836 5833 5830 5827 5823 5819 5814 5810 5805 5800 5794 5789 5783 5777 5771 5766 5760 5755
5819 5822 5824 5827 5829 5832 5834 5836 5837 5838 5839 5840 5841 5842 5843 5843 5843 5843 5843 5843 5842 5842 5841 5840 5838 5836 5834 5832 5829 5826 5822 5818 5814 5810 5805 5800 5795 5789 5783 5778 5772 5766 5761 5755
5818 5821 5823 5826 5828 5830 5832 5834 5835 5836 5837 5838 5839 5842 5840 5840 5840 5841 5841 5840 5840 5840 5839 5838 5837 5835 5833 5831 5828 5825 5822 5818 5814 5810 5805 5800 5795 5790 5784 5779 5773 5767 5762 5756
5817 5820 5822 5824 5826 5828 5830 5831 5833 5834 5835 5835 5836 5841 5837 5837 5837 5838 5838 5838 5838 5838 5837 5836 5835 5833 5831 5829 5827 5824 5821 5817 5814 5809 5805 5800 5795 5790 5785 5779 5774 5768 5763 5758
5816 5819 5821 5823 5827 5827 5828 5829 5830 5831 5832 5832 5833 5837 5834 5834 5835 5835 5835 5835 5835 5835 5835 5834 5833 5831 5830 5828 5825 5823 5820 5816 5813 5809 5805 5800 5796 5791 5785 5780 5775 5770 5764 5759
5815 5817 5820 5822 5823 5824 5825 5827 5827 5828 5829 5830 5831 5832 5832 5831 5832 5832 5832 5833 5833 5833 5832 5832 5831 5829 5828 5826 5824 5821 5818 5815 5812 5808 5804 5800 5796 5791 5786 5781 5776 5771 5766 5761
5814 5816 5817 5819 5820 5821 5823 5824 5825 5825 5826 5827 5828 5828 5828 5828 5829 5829 5829 5830 5830 5830 5830 5829 5828 5827 5826 5824 5822 5819 5817 5814 5811 5807 5803 5800 5795 5791 5786 5782 5777 5772 5767 5762
5812 5814 5815 5816 5817 5818 5820 5821 5821 5822 5823 5823 5824 5825 5825 5825 5825 5826 5826 5827 5827 5827 5827 5826 5825 5824 5823 5821 5820 5817 5815 5812 5809 5806 5802 5799 5795 5791 5786 5782 5777 5773 5768 5764
5810 5811 5812 5813 5814 5815 5817 5818 5818 5819 5819 5820 5820 5822 5821 5822 5822 5822 5823 5823 5824 5824 5824 5823 5822 5821 5820 5819 5817 5815 5813 5810 5807 5804 5801 5797 5794 5790 5786 5782 5777 5773 5769 5764
5807 5807 5808 5809 5811 5811 5816 5814 5814 5815 5816 5816 5816 5817 5817 5818 5818 5819 5819 5820 5820 5820 5820 5820 5819 5818 5817 5816 5814 5812 5810 5808 5805 5802 5799 5796 5792 5789 5785 5781 5777 5773 5769 5765
5804 5804 5804 5805 5806 5807 5810 5809 5809 5810 5811 5812 5812 5812 5813 5813 5814 5815 5815 5816 5816 5816 5816 5816 5815 5815 5814 5812 5811 5809 5807 5805 5803 5800 5797 5794 5790 5787 5783 5780 5776 5772 5769 5765
5800 5800 5801 5801 5801 5803 5806 5805 5804 5806 5807 5807 5807 5808 5808 5809 5810 5811 5811 5812 5812 5812 5812 5812 5812 5811 5810 5809 5808 5806 5804 5802 5800 5797 5794 5791 5788 5785 5782 5778 5775 5771 5768 5764
5796 5796 5797 5797 5797 5798 5800 5800 5800 5803 5803 5803 5802 5803 5804 5804 5806 5807 5807 5807 5807 5808 5808 5808 5807 5807 5806 5805 5804 5802 5801 5799 5796 5794 5791 5788 5786 5782 5779 5776 5773 5770 5766 5763
5792 5792 5792 5792 5793 5796 5794 5795 5796 5796 5797 5797 5798 5798 5799 5800 5800 5801 5802 5802 5803 5803 5803 5803 5803 5802 5802 5801 5800 5798 5797 5795 5793 5790 5788 5785 5782 5780 5777 5774 5771 5767 5764 5761
5786 5787 5786 5788 5790 5789 5789 5789 5790 5790 5791 5792 5792 5793 5794 5794 5795 5796 5797 5797 5798 5798 5798 5798 5798 5798 5797 5796 5795 5794 5792 5790 5788 5786 5784 5781 5779 5776 5773 5771 5768 5765 5761 5758
5779 5779 5780 5781 5782 5783 5783 5783 5784 5784 5785 5786 5787 5787 5788 5789 5790 5791 5791 5792 5792 5792 5793 5793 5793 5792 5792 5791 5790 5789 5787 5785 5784 5782 5779 5777 5775 5772 5770 5767 5764 5761 5758 5755
5773 5772 5772 5773 5775 5776 5776 5776 5777 5778 5779 5780 5781 5781 5782 5783 5784 5785 5785 5786 5786 5787 5787 5787 5787 5787 5786 5785 5784 5783 5782 5780 5778 5776 5774 5772 5770 5767 5765 5763 5760 5757 5754 5751
5765 5764 5764 5765 5767 5767 5769 5769 5769 5770 5772 5772 5773 5774 5775 5776 5777 5778 5779 5779 5780 5780 5780 5781 5781 5780 5780 5779 5778 5777 5776 5774 5773 5771 5769 5767 5765 5762 5760 5757 5755 5752 5750 5747